| time (UTC) | temp C | wind direction | speed KPH | gust KPH | rain 1hr cm | rain 24hr cm | rain mn cm | humidity % | barometer mb |
| 20260504201553 | 15 | 0 | 0.0 | 4.8 | 0.00 | 0.56 | 0.56 | 90 | 1011.6 |
| 20260504194558 | 16 | 0 | 1.6 | 9.7 | 0.00 | 0.56 | 0.56 | 90 | 1011.2 |
| 20260504193058 | 16 | 62 | 4.8 | 16.1 | 0.00 | 0.56 | 0.56 | 90 | 1011.0 |
| 20260504191555 | 16 | 92 | 3.2 | 9.7 | 0.00 | 0.56 | 0.56 | 91 | 1010.8 |
| 20260504190059 | 16 | 51 | 3.2 | 9.7 | 0.00 | 0.56 | 0.56 | 91 | 1010.4 |
| 20260504184605 | 16 | 107 | 1.6 | 8.0 | 0.00 | 0.56 | 0.56 | 92 | 1010.0 |
| 20260504183100 | 16 | 173 | 3.2 | 12.9 | 0.00 | 0.56 | 0.56 | 92 | 1010.0 |
| 20260504181559 | 16 | 161 | 3.2 | 16.1 | 0.00 | 0.56 | 0.56 | 91 | 1010.2 |
| 20260504180058 | 16 | 142 | 4.8 | 11.3 | 0.00 | 0.56 | 0.56 | 91 | 1009.9 |
| 20260504174555 | 16 | 151 | 3.2 | 9.7 | 0.00 | 0.56 | 0.56 | 90 | 1009.8 |
| 20260504173053 | 16 | 171 | 8.0 | 14.5 | 0.03 | 0.56 | 0.56 | 90 | 1010.2 |
| 20260504171558 | 17 | 141 | 3.2 | 12.9 | 0.03 | 0.56 | 0.56 | 91 | 1010.2 |
| 20260504081558 | 18 | 224 | 4.8 | 11.3 | 0.00 | 0.00 | 0.00 | 73 | 1012.0 |
| 20260504070104 | 17 | 352 | 3.2 | 16.1 | 0.00 | 0.00 | 0.00 | 77 | 1011.9 |
| 20260504044603 | 13 | 0 | 3.2 | 12.9 | 0.00 | 0.00 | 0.00 | 90 | 1012.3 |
| 20260504043054 | 13 | 207 | 1.6 | 8.0 | 0.00 | 0.00 | 0.00 | 90 | 1012.4 |
| 20260504041556 | 14 | 0 | 0.0 | 8.0 | 0.00 | 0.00 | 0.00 | 90 | 1012.6 |
| 20260504040058 | 14 | 0 | 1.6 | 11.3 | 0.00 | 0.00 | 0.00 | 90 | 1012.5 |
| 20260504034614 | 14 | 223 | 4.8 | 9.7 | 0.00 | 0.00 | 0.00 | 88 | 1012.8 |
| 20260504033056 | 15 | 182 | 3.2 | 11.3 | 0.00 | 0.00 | 0.00 | 86 | 1013.1 |
| 20260504031552 | 15 | 286 | 3.2 | 6.4 | 0.00 | 0.00 | 0.00 | 86 | 1013.2 |
| 20260504030058 | 15 | 0 | 1.6 | 9.7 | 0.00 | 0.00 | 0.00 | 85 | 1013.1 |
| 20260504024553 | 15 | 0 | 0.0 | 9.7 | 0.00 | 0.00 | 0.00 | 85 | 1013.2 |
| 20260504023057 | 15 | 159 | 3.2 | 8.0 | 0.00 | 0.00 | 0.00 | 86 | 1013.4 |
| 20260504021557 | 15 | 186 | 3.2 | 16.1 | 0.00 | 0.00 | 0.00 | 85 | 1013.1 |
| 20260504020053 | 15 | 159 | 4.8 | 16.1 | 0.00 | 0.00 | 0.00 | 85 | 1013.3 |
| 20260504014611 | 15 | 134 | 4.8 | 16.1 | 0.00 | 0.00 | 0.00 | 86 | 1013.3 |
| 20260504013055 | 15 | 114 | 3.2 | 19.3 | 0.00 | 0.00 | 0.00 | 86 | 1013.3 |
| 20260504011558 | 15 | 144 | 6.4 | 20.9 | 0.00 | 0.00 | 0.00 | 88 | 1013.5 |
| 20260504010059 | 15 | 246 | 6.4 | 14.5 | 0.00 | 0.00 | 0.00 | 88 | 1013.6 |
| 20260504004552 | 15 | 245 | 8.0 | 19.3 | 0.00 | 0.00 | 0.00 | 86 | 1013.7 |
| 20260504003059 | 15 | 58 | 8.0 | 17.7 | 0.00 | 0.00 | 0.00 | 85 | 1013.5 |
| 20260504001556 | 15 | 159 | 6.4 | 19.3 | 0.00 | 0.00 | 0.00 | 85 | 1013.6 |
| 20260504000057 | 15 | 131 | 11.3 | 19.3 | 0.00 | 0.00 | 0.00 | 85 | 1013.8 |
| 20260503234551 | 15 | 143 | 6.4 | 14.5 | 0.00 | 0.00 | 0.00 | 85 | 1014.1 |
| 20260503233053 | 15 | 148 | 4.8 | 14.5 | 0.00 | 0.00 | 0.00 | 85 | 1014.2 |
| 20260503231554 | 15 | 182 | 4.8 | 12.9 | 0.00 | 0.00 | 0.00 | 85 | 1014.2 |
| 20260503230051 | 15 | 163 | 6.4 | 17.7 | 0.00 | 0.00 | 0.00 | 83 | 1014.5 |
| 20260503224556 | 15 | 148 | 6.4 | 14.5 | 0.00 | 0.00 | 0.00 | 84 | 1014.6 |
| 20260503223055 | 16 | 164 | 6.4 | 16.1 | 0.00 | 0.00 | 0.00 | 84 | 1014.9 |
| 20260503221554 | 16 | 188 | 3.2 | 11.3 | 0.00 | 0.00 | 0.00 | 84 | 1015.1 |
| 20260503220054 | 16 | 178 | 4.8 | 12.9 | 0.00 | 0.00 | 0.00 | 84 | 1015.1 |
| 20260503214552 | 15 | 136 | 4.8 | 14.5 | 0.00 | 0.00 | 0.00 | 85 | 1015.1 |
| 20260503213108 | 16 | 162 | 8.0 | 16.1 | 0.00 | 0.00 | 0.00 | 85 | 1015.1 |
| 20260503211556 | 16 | 210 | 6.4 | 16.1 | 0.00 | 0.00 | 0.00 | 84 | 1015.2 |
| 20260503210101 | 16 | 173 | 8.0 | 20.9 | 0.00 | 0.00 | 0.00 | 84 | 1015.3 |
| 20260503204555 | 16 | 188 | 6.4 | 16.1 | 0.00 | 0.00 | 0.00 | 85 | 1015.3 |
| 20260503203102 | 16 | 182 | 6.4 | 16.1 | 0.00 | 0.00 | 0.00 | 85 | 1015.4 |